timestamp,wind_dir_avg,wind_spd_avg,wind_spd_max_dir,wind_spd_gust,battery_voltage,lat,long
2023-06-21 00:04:00+00:00,66.0,6.09,68.0,6.91,13.21,47.59359,-54.27349
2023-06-21 00:14:00+00:00,67.0,6.06,62.0,6.86,12.65,47.59359,-54.27349
2023-06-21 00:24:00+00:00,60.0,7.01,58.0,8.0,12.65,47.59359,-54.27349
2023-06-21 00:34:00+00:00,59.0,8.21,59.0,9.09,12.65,47.59359,-54.27349
2023-06-21 00:44:00+00:00,59.0,8.25,57.0,8.88,12.65,47.59359,-54.27349
2023-06-21 00:54:00+00:00,57.0,8.22,54.0,9.24,12.65,47.59359,-54.27349
2023-06-21 01:04:00+00:00,56.0,8.43,55.0,9.01,12.65,47.59359,-54.27349
2023-06-21 01:14:00+00:00,53.0,9.25,53.0,10.85,12.41,47.59359,-54.27349
2023-06-21 01:24:00+00:00,51.0,8.58,46.0,10.1,12.41,47.59359,-54.27349
2023-06-21 01:34:00+00:00,52.0,9.35,52.0,10.06,12.41,47.59359,-54.27349
2023-06-21 01:44:00+00:00,52.0,9.0,51.0,9.86,12.41,47.59359,-54.27349
2023-06-21 01:54:00+00:00,50.0,8.6,49.0,9.74,12.41,47.59359,-54.27349
2023-06-21 02:04:00+00:00,50.0,9.44,50.0,10.85,12.41,47.59359,-54.27349
2023-06-21 02:14:00+00:00,51.0,11.77,56.0,14.47,12.33,47.59359,-54.27349
2023-06-21 02:24:00+00:00,50.0,9.64,66.0,13.99,12.33,47.59359,-54.27349
2023-06-21 02:34:00+00:00,49.0,9.48,52.0,10.76,12.33,47.59359,-54.27349
2023-06-21 02:44:00+00:00,50.0,9.07,50.0,10.1,12.33,47.59359,-54.27349
2023-06-21 02:54:00+00:00,53.0,9.6,51.0,10.67,12.33,47.59359,-54.27349
2023-06-21 03:04:00+00:00,49.0,10.35,48.0,11.38,12.33,47.59359,-54.27349
2023-06-21 03:14:00+00:00,51.0,9.22,53.0,10.09,12.33,47.59359,-54.27349
2023-06-21 03:24:00+00:00,48.0,9.8,48.0,11.04,12.33,47.59359,-54.27349
2023-06-21 03:34:00+00:00,45.0,8.88,49.0,9.74,12.33,47.59359,-54.27349
2023-06-21 03:44:00+00:00,47.0,8.66,44.0,9.33,12.33,47.59359,-54.27349
2023-06-21 03:54:00+00:00,45.0,7.67,48.0,8.32,12.33,47.59359,-54.27349
2023-06-21 04:04:00+00:00,33.0,7.83,37.0,8.6,12.33,47.59359,-54.27349
2023-06-21 04:14:01+00:00,43.0,7.61,42.0,8.46,12.33,47.59359,-54.27349
2023-06-21 04:24:01+00:00,47.0,7.13,44.0,8.83,12.33,47.59359,-54.27349
2023-06-21 04:34:01+00:00,49.0,7.03,47.0,7.85,12.33,47.59359,-54.27349
2023-06-21 04:44:01+00:00,50.0,6.82,51.0,7.41,12.33,47.59359,-54.27349
2023-06-21 04:54:01+00:00,27.0,5.85,28.0,6.8,12.33,47.59359,-54.27349
2023-06-21 05:04:01+00:00,44.0,5.21,40.0,5.8,12.33,47.59359,-54.27349
2023-06-21 05:14:00+00:00,33.0,6.65,36.0,7.41,12.33,47.59359,-54.27349
2023-06-21 05:24:00+00:00,35.0,7.19,35.0,7.6,12.33,47.59359,-54.27349
2023-06-21 05:34:00+00:00,33.0,5.51,37.0,6.61,12.33,47.59359,-54.27349
2023-06-21 05:44:00+00:00,38.0,5.59,42.0,6.72,12.33,47.59359,-54.27349
2023-06-21 05:54:00+00:00,44.0,5.21,44.0,6.25,12.33,47.59359,-54.27349
2023-06-21 06:04:00+00:00,16.0,4.32,16.0,5.05,12.33,47.59359,-54.27349
2023-06-21 06:14:00+00:00,36.0,4.46,35.0,5.81,12.25,47.59359,-54.27349
2023-06-21 06:24:00+00:00,30.0,3.62,29.0,4.54,12.25,47.59359,-54.27349
2023-06-21 06:34:00+00:00,15.0,2.38,15.0,2.39,12.25,47.59359,-54.27349
2023-06-21 06:44:00+00:00,315.0,0.01,358.0,0.0,12.25,47.59359,-54.27349
2023-06-21 06:54:00+00:00,315.0,0.01,1.0,0.0,12.25,47.59359,-54.27349
2023-06-21 07:04:00+00:00,357.0,5.84,1.0,6.1,12.25,47.59359,-54.27349
2023-06-21 07:14:01+00:00,351.0,3.95,352.0,4.45,12.25,47.59359,-54.27349
2023-06-21 07:24:01+00:00,22.0,3.76,21.0,4.15,12.25,47.59359,-54.27349
2023-06-21 07:34:01+00:00,19.0,4.74,18.0,5.37,12.25,47.59359,-54.27349
2023-06-21 07:44:01+00:00,354.0,2.99,355.0,3.35,12.25,47.59359,-54.27349
2023-06-21 07:54:01+00:00,315.0,0.01,356.0,0.0,12.25,47.59359,-54.27349
2023-06-21 08:04:01+00:00,18.0,3.12,20.0,3.91,12.25,47.59359,-54.27349
2023-06-21 08:14:00+00:00,21.0,3.82,19.0,4.44,12.17,47.59359,-54.27349
2023-06-21 08:24:00+00:00,359.0,3.19,354.0,4.81,12.17,47.59359,-54.27349
2023-06-21 08:34:00+00:00,349.0,5.58,352.0,6.72,12.17,47.59359,-54.27349
2023-06-21 08:44:00+00:00,2.0,4.2,2.0,4.53,12.17,47.59359,-54.27349
2023-06-21 08:54:00+00:00,351.0,5.09,352.0,5.6,12.17,47.59359,-54.27349
2023-06-21 09:04:00+00:00,10.0,5.27,12.0,6.09,12.17,47.59359,-54.27349
2023-06-21 09:14:00+00:00,5.0,5.85,6.0,7.16,12.41,47.59359,-54.27349
2023-06-21 09:24:00+00:00,22.0,4.58,19.0,5.34,12.41,47.59359,-54.27349
2023-06-21 09:34:00+00:00,13.0,2.75,8.0,3.44,12.41,47.59359,-54.27349
2023-06-21 09:44:00+00:00,10.0,2.72,11.0,3.12,12.41,47.59359,-54.27349
2023-06-21 09:54:00+00:00,37.0,4.96,39.0,5.65,12.41,47.59359,-54.27349
2023-06-21 10:04:00+00:00,315.0,0.01,13.0,0.0,12.41,47.59359,-54.27349
2023-06-21 10:14:00+00:00,23.0,2.48,21.0,2.78,13.44,47.59359,-54.27349
2023-06-21 10:24:00+00:00,31.0,4.23,32.0,4.85,13.44,47.59359,-54.27349
2023-06-21 10:34:00+00:00,21.0,1.7,26.0,2.21,13.44,47.59359,-54.27349
2023-06-21 10:44:00+00:00,34.0,1.61,25.0,2.11,13.44,47.59359,-54.27349
2023-06-21 10:54:00+00:00,31.0,2.81,30.0,3.97,13.44,47.59359,-54.27349
2023-06-21 11:04:00+00:00,40.0,3.35,34.0,3.95,13.44,47.59359,-54.27349
2023-06-21 11:14:00+00:00,51.0,2.49,50.0,2.86,13.44,47.59359,-54.27349
2023-06-21 11:24:00+00:00,72.0,2.78,71.0,3.65,13.44,47.59359,-54.27349
2023-06-21 11:34:00+00:00,72.0,2.81,69.0,3.39,13.44,47.59359,-54.27349
2023-06-21 11:44:00+00:00,88.0,2.28,98.0,3.08,13.44,47.59359,-54.27349
2023-06-21 11:54:00+00:00,109.0,2.57,125.0,3.66,13.44,47.59359,-54.27349
2023-06-21 12:04:00+00:00,105.0,2.46,121.0,3.48,13.44,47.59359,-54.27349
2023-06-21 12:14:00+00:00,75.0,2.01,74.0,3.1,13.84,47.59359,-54.27349
2023-06-21 12:24:00+00:00,62.0,2.48,67.0,2.8,13.84,47.59359,-54.27349
2023-06-21 12:34:00+00:00,114.0,1.12,124.0,1.66,13.84,47.59359,-54.27349
2023-06-21 12:44:00+00:00,53.0,0.98,50.0,1.56,13.84,47.59359,-54.27349
2023-06-21 12:54:00+00:00,69.0,1.09,85.0,1.54,13.84,47.59359,-54.27349
2023-06-21 13:04:00+00:00,54.0,1.13,60.0,1.4,13.84,47.59359,-54.27349
2023-06-21 13:14:00+00:00,30.0,0.43,22.0,0.91,14.32,47.59359,-54.27349
2023-06-21 13:24:00+00:00,278.0,0.92,293.0,1.17,14.32,47.59359,-54.27349
2023-06-21 13:34:00+00:00,266.0,1.84,268.0,2.1,14.32,47.59359,-54.27349
2023-06-21 13:44:00+00:00,264.0,2.22,269.0,2.47,14.32,47.59359,-54.27349
2023-06-21 13:54:00+00:00,249.0,2.49,251.0,2.72,14.32,47.59359,-54.27349
2023-06-21 14:04:00+00:00,242.0,2.96,243.0,3.22,14.32,47.59359,-54.27349
2023-06-21 14:14:00+00:00,236.0,3.73,241.0,3.94,13.68,47.59359,-54.27349
2023-06-21 14:24:00+00:00,238.0,3.28,246.0,3.78,13.68,47.59359,-54.27349
2023-06-21 14:34:00+00:00,216.0,2.54,213.0,2.92,13.68,47.59359,-54.27349
2023-06-21 14:44:00+00:00,215.0,4.41,214.0,4.91,13.68,47.59359,-54.27349
2023-06-21 14:54:00+00:00,211.0,6.32,210.0,7.12,13.68,47.59359,-54.27349
2023-06-21 15:04:00+00:00,212.0,8.25,212.0,9.03,13.68,47.59359,-54.27349
2023-06-21 15:14:01+00:00,212.0,7.23,212.0,8.15,13.68,47.59359,-54.27349
2023-06-21 15:24:01+00:00,209.0,7.27,214.0,8.27,13.68,47.59359,-54.27349
2023-06-21 15:34:01+00:00,211.0,8.04,214.0,8.79,13.68,47.59359,-54.27349
2023-06-21 15:44:01+00:00,207.0,8.5,209.0,9.81,13.68,47.59359,-54.27349
2023-06-21 15:54:01+00:00,210.0,8.65,209.0,9.56,13.68,47.59359,-54.27349
2023-06-21 16:04:01+00:00,214.0,8.37,215.0,9.07,13.68,47.59359,-54.27349
2023-06-21 16:14:01+00:00,213.0,10.07,213.0,11.15,13.68,47.59359,-54.27349
2023-06-21 16:24:01+00:00,213.0,9.78,212.0,10.45,13.68,47.59359,-54.27349
2023-06-21 16:34:01+00:00,205.0,9.0,213.0,9.85,13.68,47.59359,-54.27349
2023-06-21 16:44:01+00:00,200.0,9.54,202.0,10.8,13.68,47.59359,-54.27349
2023-06-21 16:54:01+00:00,210.0,9.43,212.0,10.68,13.68,47.59359,-54.27349
2023-06-21 17:04:01+00:00,208.0,9.74,205.0,10.69,13.68,47.59359,-54.27349
2023-06-21 17:14:00+00:00,208.0,9.66,204.0,10.64,14.24,47.59359,-54.27349
2023-06-21 17:24:00+00:00,199.0,9.88,206.0,11.46,14.24,47.59359,-54.27349
2023-06-21 17:34:00+00:00,197.0,10.61,199.0,11.93,14.24,47.59359,-54.27349
2023-06-21 17:44:00+00:00,207.0,10.48,210.0,11.84,14.24,47.59359,-54.27349
2023-06-21 17:54:00+00:00,208.0,11.48,211.0,12.79,14.24,47.59359,-54.27349
2023-06-21 18:04:00+00:00,204.0,10.6,209.0,11.82,14.24,47.59359,-54.27349
2023-06-21 18:14:01+00:00,208.0,11.6,211.0,13.05,13.76,47.59359,-54.27349
2023-06-21 18:24:01+00:00,211.0,11.42,212.0,12.89,13.76,47.59359,-54.27349
2023-06-21 18:34:01+00:00,212.0,11.43,210.0,12.73,13.76,47.59359,-54.27349
2023-06-21 18:44:01+00:00,209.0,11.92,212.0,13.46,13.76,47.59359,-54.27349
2023-06-21 18:54:01+00:00,211.0,12.52,211.0,14.1,13.76,47.59359,-54.27349
2023-06-21 19:04:01+00:00,210.0,12.28,210.0,13.98,13.76,47.59359,-54.27349
2023-06-21 19:14:01+00:00,207.0,11.88,203.0,13.81,13.68,47.59359,-54.27349
2023-06-21 19:24:01+00:00,205.0,12.18,205.0,13.67,13.68,47.59359,-54.27349
2023-06-21 19:34:01+00:00,202.0,11.33,203.0,12.81,13.68,47.59359,-54.27349
2023-06-21 19:44:01+00:00,203.0,10.85,201.0,12.72,13.68,47.59359,-54.27349
2023-06-21 19:54:01+00:00,203.0,10.98,205.0,12.11,13.68,47.59359,-54.27349
2023-06-21 20:04:01+00:00,204.0,11.0,205.0,12.27,13.68,47.59359,-54.27349
2023-06-21 20:14:00+00:00,204.0,11.44,201.0,12.39,13.68,47.59359,-54.27349
2023-06-21 20:24:00+00:00,202.0,10.83,202.0,12.07,13.68,47.59359,-54.27349
2023-06-21 20:34:00+00:00,202.0,9.02,203.0,10.14,13.68,47.59359,-54.27349
2023-06-21 20:44:00+00:00,199.0,10.53,198.0,11.57,13.68,47.59359,-54.27349
2023-06-21 20:54:00+00:00,202.0,10.21,204.0,11.71,13.68,47.59359,-54.27349
2023-06-21 21:04:00+00:00,200.0,9.32,198.0,10.93,13.68,47.59359,-54.27349
2023-06-21 21:14:00+00:00,200.0,8.95,197.0,9.84,13.68,47.59359,-54.27349
2023-06-21 21:24:00+00:00,202.0,9.12,201.0,10.5,13.68,47.59359,-54.27349
2023-06-21 21:34:00+00:00,202.0,9.88,204.0,11.12,13.68,47.59359,-54.27349
2023-06-21 21:44:00+00:00,199.0,9.53,199.0,10.92,13.68,47.59359,-54.27349
2023-06-21 21:54:00+00:00,194.0,9.39,194.0,11.16,13.68,47.59359,-54.27349
2023-06-21 22:04:00+00:00,197.0,8.7,194.0,10.66,13.68,47.59359,-54.27349
2023-06-21 22:14:01+00:00,201.0,8.87,201.0,9.95,13.53,47.59359,-54.27349
2023-06-21 22:24:01+00:00,203.0,9.01,204.0,10.01,13.53,47.59359,-54.27349
2023-06-21 22:34:01+00:00,207.0,9.07,210.0,10.48,13.53,47.59359,-54.27349
2023-06-21 22:44:01+00:00,204.0,9.43,204.0,10.22,13.53,47.59359,-54.27349
2023-06-21 22:54:01+00:00,209.0,8.66,214.0,10.23,13.53,47.59359,-54.27349
2023-06-21 23:04:01+00:00,207.0,7.46,206.0,8.26,13.53,47.59359,-54.27349
2023-06-21 23:14:01+00:00,205.0,8.17,205.0,9.11,13.21,47.59359,-54.27349
2023-06-21 23:24:01+00:00,208.0,8.47,212.0,9.62,13.21,47.59359,-54.27349
2023-06-21 23:34:01+00:00,208.0,7.78,205.0,8.95,13.21,47.59359,-54.27349
2023-06-21 23:44:01+00:00,209.0,7.84,209.0,8.67,13.21,47.59359,-54.27349
2023-06-21 23:54:01+00:00,209.0,7.42,208.0,8.42,13.21,47.59359,-54.27349
